Location: San Vito
(41.8833°N, 12.9833°E)
Time: 08:18:05
(UTC+00:00)

Cosmos 1937 Rocket - Pass Details

Date: 17 November 2019
Orbit: 747 x 780 km, 74.0° (Epoch: 07 December)

Event Time Altitude Azimuth Distance (km) Brightness Sun altitude
Exits shadow 03:46:40 12° 194° (SSW) 2,151 5.7 -24.6°
Maximum altitude 03:51:30 81° 109° (ESE) 761 3.4 -23.8°
Drops below altitude 10° 03:56:38 10° 22° (NNE) 2,272 6.1 -22.8°
Sets 03:59:00 0° 21° (NNE) 3,200 6.9 -22.4°
